Grand Junction, CO

3:13 AM MST on December 16, 2019 (GMT -0700)
Walker

Weather History for KGJT - September, 2019

Change the Weather History Date:

Sunday, September 1, 2019

  Actual Average Record
Temperature  
Mean Temperature 81 °F 72 °F  
Max Temperature 100 °F 86 °F 100 °F (2019)
Min Temperature 62 °F 58 °F 47 °F (1962)
Degree Days  
Heating Degree Days 0 0  
Month to date heating degree days 0 0  
Since 1 July heating degree days 0 3  
Cooling Degree Days 16 7  
Month to date cooling degree days 16 7  
Year to date cooling degree days 1137 1026  
Growing Degree Days 32 (Base 50)    
Moisture  
Dew Point 34 °F    
Average Humidity 23    
Maximum Humidity 37    
Minimum Humidity 9    
Precipitation  
Precipitation 0.00 in 0.04 in 0.50 in (1937)
Month to date precipitation 0.00 0.04  
Year to date precipitation 6.86 5.89  
Snow  
Snow 0.00 in 0.00 in 0.00 in (2018)
Month to date snowfall 0.0 0.0  
Since 1 July snowfall 0.0 0.0  
Since 1 September snowfall 0.0 0.0  
Snow Depth 0.00 in    
Sea Level Pressure  
Sea Level Pressure 29.89 in    
Wind  
Wind Speed 8 mph (SE)    
Max Wind Speed 16 mph    
Max Gust Speed 24 mph    
Visibility 10 miles    
Events      
T = Trace of Precipitation, MM = Missing Value Source: NWS Daily Summary

Daily Weather History Graph

Daily Weather History Graph

Search for Another Location

Airport or City:

Astronomy

Sep. 01, 2019 Rise Set
Actual Time 6:42 AM MDT 7:44 PM MDT
Civil Twilight 6:15 AM MDT 8:12 PM MDT
Nautical Twilight 5:42 AM MDT 8:44 PM MDT
Astronomical Twilight 5:08 AM MDT 9:18 PM MDT
Moon 9:15 AM MDT (9/1) 9:35 PM MDT (9/1)
Length of Visible Light 13h 57m
Length of Day
13h 02m
Waxing Crescent, 8% of the Moon is Illuminated
Sep 1
Waxing Crescent
Sep 5
First Quarter
Sep 13
Full
Sep 21
Last Quarter
Sep 28
New

Hourly Weather History & Observations

Time (MDT) Temp. Dew Point Humidity Pressure Visibility Wind Dir Wind Speed Gust Speed Precip Events Conditions
12:53 AM 73.0 °F 36.0 °F 26% 29.85 in 10.0 mi ESE 11.5 mph - N/A   Clear
1:53 AM 70.0 °F 37.0 °F 30% 29.86 in 10.0 mi ESE 6.9 mph - N/A   Clear
2:53 AM 70.0 °F 37.0 °F 30% 29.86 in 10.0 mi ESE 10.4 mph - N/A   Clear
3:53 AM 68.0 °F 37.9 °F 33% 29.87 in 10.0 mi SE 9.2 mph - N/A   Clear
4:53 AM 63.0 °F 35.1 °F 35% 29.89 in 10.0 mi East 3.5 mph - N/A   Clear
5:53 AM 64.0 °F 37.0 °F 37% 29.91 in 10.0 mi ESE 10.4 mph - N/A   Clear
6:53 AM 64.9 °F 37.0 °F 36% 29.93 in 10.0 mi ESE 13.8 mph - N/A   Clear
7:53 AM 69.1 °F 37.9 °F 32% 29.97 in 10.0 mi ESE 12.7 mph - N/A   Clear
8:53 AM 75.0 °F 39.0 °F 27% 29.99 in 10.0 mi SSE 8.1 mph - N/A   Clear
9:53 AM 80.1 °F 39.9 °F 24% 29.99 in 10.0 mi SE 10.4 mph - N/A   Clear
10:53 AM 82.9 °F 39.0 °F 21% 29.97 in 10.0 mi SSW 9.2 mph - N/A   Clear
11:53 AM 86.0 °F 39.0 °F 19% 29.96 in 10.0 mi South 5.8 mph - N/A   Clear
12:53 PM 91.9 °F 41.0 °F 17% 29.92 in 10.0 mi Variable 5.8 mph - N/A   Clear
1:53 PM 93.9 °F 37.0 °F 14% 29.91 in 10.0 mi WNW 4.6 mph - N/A   Clear
2:53 PM 96.1 °F 36.0 °F 12% 29.87 in 10.0 mi NW 6.9 mph - N/A   Clear
3:53 PM 99.0 °F 33.1 °F 10% 29.83 in 10.0 mi West 17.3 mph 24.2 mph N/A   Clear
4:53 PM 97.0 °F 30.9 °F 10% 29.84 in 10.0 mi SW 12.7 mph 24.2 mph N/A   Clear
5:53 PM 97.0 °F 28.9 °F 9% 29.83 in 10.0 mi WNW 10.4 mph - N/A   Clear
6:53 PM 95.0 °F 28.0 °F 9% 29.83 in 10.0 mi WNW 6.9 mph - N/A   Clear
7:53 PM 87.1 °F 28.0 °F 12% 29.84 in 10.0 mi Calm Calm - N/A   Clear
8:53 PM 77.0 °F 25.0 °F 15% 29.86 in 10.0 mi Calm Calm - N/A   Clear
9:53 PM 79.0 °F 25.0 °F 14% 29.85 in 10.0 mi NNE 3.5 mph - N/A   Clear
10:53 PM 75.0 °F 28.0 °F 18% 29.87 in 10.0 mi East 6.9 mph - N/A   Clear
11:53 PM 73.0 °F 28.0 °F 19% 29.86 in 10.0 mi ESE 6.9 mph - N/A   Clear